Location: Bun Machan
(52.1403°N, 7.3744°W)
Time: 17:48:24
(UTC+00:00)

ARIANE 5 R/B - Pass Details

Date: 14 July 2020
Orbit: 749 x 794 km, 98.6° (Epoch: 13 August)

Event Time Altitude Azimuth Distance (km) Brightness Sun altitude
Rises 02:49:50 0° 20° (NNE) 3,235 7.6 -10.6°
Reaches altitude 10° 02:52:17 10° 28° (NNE) 2,311 6.6 -10.4°
Maximum altitude 02:57:04 40° 98° (E) 1,138 3.6 -10.0°
Drops below altitude 10° 03:01:51 10° 167° (SSE) 2,322 4.6 -9.6°
Enters shadow 03:03:30 - 173° (S) 2,942 5.1 -9.5°
